• In Deutschland
  • Länderverzeichnis
  • Für 7 Tage
  • Wassertemperatur
  • Satellitenkarten
  • Wetterkarte
  • Widgets
  • user-avatar
    Anmelden

    Stündliche Wetter Salzwedel

    Heute, 24 September, Montag

    Zeit Temperatur Niederschläge Wind Luftdruck Luftfeuchtigkeit
    00:00 +7°C° 0 mm 5 m/S 759 mmHg 86%
    01:00 +7°C° 0 mm 4 m/S 760 mmHg 88%
    02:00 +7°C° 0 mm 4 m/S 761 mmHg 87%
    03:00 +7°C° 0 mm 5 m/S 762 mmHg 86%
    04:00 +7°C° 0 mm 5 m/S 762 mmHg 86%
    05:00 +7°C° 0 mm 5 m/S 763 mmHg 84%
    06:00 +7°C° 0 mm 5 m/S 764 mmHg 83%
    07:00 +6°C° 0 mm 5 m/S 764 mmHg 84%
    08:00 +8°C° 0.1 mm 6 m/S 765 mmHg 76%
    09:00 +9°C° 0.1 mm 7 m/S 765 mmHg 68%
    10:00 +11°C° 0.1 mm 7 m/S 766 mmHg 60%
    11:00 +11°C° 0.2 mm 7 m/S 766 mmHg 57%
    12:00 +12°C° 0.2 mm 7 m/S 767 mmHg 53%
    13:00 +12°C° 0.2 mm 7 m/S 767 mmHg 50%
    14:00 +12°C° 0.1 mm 7 m/S 767 mmHg 50%
    15:00 +12°C° 0.1 mm 7 m/S 768 mmHg 49%
    16:00 +12°C° 0.1 mm 7 m/S 768 mmHg 49%
    17:00 +11°C° 0 mm 6 m/S 768 mmHg 53%
    18:00 +9°C° 0 mm 5 m/S 769 mmHg 56%
    19:00 +8°C° 0 mm 4 m/S 769 mmHg 60%
    20:00 +7°C° 0 mm 4 m/S 770 mmHg 62%
    21:00 +7°C° 0 mm 4 m/S 771 mmHg 64%
    22:00 +7°C° 0 mm 4 m/S 771 mmHg 67%
    23:00 +6°C° 0 mm 4 m/S 772 mmHg 69%

    Morgen, 25 September, Dienstag

    Zeit Temperatur Niederschläge Wind Luftdruck Luftfeuchtigkeit
    00:00 +6°C° 0 mm 4 m/S 772 mmHg 71%
    01:00 +5°C° 0 mm 3 m/S 772 mmHg 73%
    02:00 +5°C° 0 mm 3 m/S 772 mmHg 76%
    03:00 +5°C° 0 mm 3 m/S 773 mmHg 78%
    04:00 +5°C° 0 mm 3 m/S 773 mmHg 80%
    05:00 +5°C° 0 mm 3 m/S 773 mmHg 81%
    06:00 +5°C° 0 mm 3 m/S 774 mmHg 82%
    07:00 +5°C° 0 mm 3 m/S 774 mmHg 83%
    08:00 +8°C° 0 mm 3 m/S 775 mmHg 73%
    09:00 +10°C° 0 mm 3 m/S 775 mmHg 64%
    10:00 +12°C° 0 mm 3 m/S 775 mmHg 54%
    11:00 +13°C° 0 mm 3 m/S 775 mmHg 50%
    12:00 +13°C° 0 mm 3 m/S 775 mmHg 46%
    13:00 +14°C° 0 mm 3 m/S 775 mmHg 42%
    14:00 +15°C° 0 mm 2 m/S 775 mmHg 42%
    15:00 +15°C° 0 mm 2 m/S 775 mmHg 42%
    16:00 +15°C° 0 mm 2 m/S 775 mmHg 42%
    17:00 +14°C° 0 mm 2 m/S 775 mmHg 48%
    18:00 +12°C° 0 mm 2 m/S 775 mmHg 55%
    19:00 +11°C° 0 mm 1 m/S 775 mmHg 61%
    20:00 +10°C° 0 mm 1 m/S 775 mmHg 63%
    21:00 +9°C° 0 mm 2 m/S 775 mmHg 66%
    22:00 +8°C° 0 mm 2 m/S 775 mmHg 69%
    23:00 +8°C° 0 mm 2 m/S 775 mmHg 70%

    übermorgen, 26 September, Mittwoch

    Zeit Temperatur Niederschläge Wind Luftdruck Luftfeuchtigkeit
    00:00 +8°C° 0 mm 2 m/S 775 mmHg 72%
    01:00 +7°C° 0 mm 2 m/S 775 mmHg 73%
    02:00 +7°C° 0 mm 2 m/S 774 mmHg 73%
    03:00 +7°C° 0 mm 2 m/S 774 mmHg 72%
    04:00 +7°C° 0 mm 2 m/S 774 mmHg 72%
    05:00 +7°C° 0 mm 3 m/S 774 mmHg 71%
    06:00 +7°C° 0 mm 3 m/S 773 mmHg 70%
    07:00 +7°C° 0 mm 3 m/S 773 mmHg 69%
    08:00 +8°C° 0 mm 4 m/S 773 mmHg 63%
    09:00 +11°C° 0 mm 4 m/S 773 mmHg 56%
    10:00 +14°C° 0 mm 5 m/S 773 mmHg 49%
    11:00 +15°C° 0 mm 5 m/S 772 mmHg 46%
    12:00 +16°C° 0 mm 5 m/S 772 mmHg 44%
    13:00 +17°C° 0 mm 6 m/S 771 mmHg 41%
    14:00 +17°C° 0 mm 6 m/S 771 mmHg 41%
    15:00 +17°C° 0 mm 5 m/S 770 mmHg 42%
    16:00 +17°C° 0 mm 5 m/S 770 mmHg 42%
    17:00 +16°C° 0 mm 5 m/S 770 mmHg 46%
    18:00 +15°C° 0 mm 4 m/S 770 mmHg 50%
    19:00 +14°C° 0 mm 4 m/S 770 mmHg 54%
    20:00 +13°C° 0 mm 4 m/S 770 mmHg 55%
    21:00 +13°C° 0 mm 4 m/S 770 mmHg 57%
    22:00 +13°C° 0 mm 4 m/S 770 mmHg 58%
    23:00 +13°C° 0 mm 4 m/S 770 mmHg 60%

    27 September, Donnerstag

    Zeit Temperatur Niederschläge Wind Luftdruck Luftfeuchtigkeit
    00:00 +13°C° 0 mm 4 m/S 770 mmHg 62%
    01:00 +13°C° 0 mm 4 m/S 769 mmHg 64%
    02:00 +12°C° 0 mm 4 m/S 769 mmHg 66%
    03:00 +12°C° 0 mm 4 m/S 769 mmHg 68%
    04:00 +12°C° 0 mm 4 m/S 769 mmHg 69%
    05:00 +12°C° 0 mm 4 m/S 769 mmHg 70%
    06:00 +12°C° 0 mm 4 m/S 769 mmHg 70%
    07:00 +12°C° 0 mm 4 m/S 769 mmHg 71%
    08:00 +14°C° 0 mm 4 m/S 769 mmHg 67%
    09:00 +15°C° 0 mm 4 m/S 769 mmHg 63%
    10:00 +18°C° 0 mm 4 m/S 769 mmHg 60%
    11:00 +19°C° 0 mm 4 m/S 768 mmHg 58%
    12:00 +21°C° 0 mm 4 m/S 768 mmHg 56%
    13:00 +22°C° 0 mm 4 m/S 768 mmHg 54%
    14:00 +22°C° 0 mm 4 m/S 767 mmHg 54%
    15:00 +22°C° 0 mm 4 m/S 767 mmHg 54%
    16:00 +22°C° 0 mm 4 m/S 766 mmHg 54%
    17:00 +20°C° 0 mm 4 m/S 766 mmHg 59%
    18:00 +19°C° 0 mm 3 m/S 766 mmHg 63%
    19:00 +17°C° 0 mm 3 m/S 766 mmHg 68%
    20:00 +17°C° 0 mm 3 m/S 766 mmHg 69%
    21:00 +16°C° 0 mm 3 m/S 766 mmHg 70%
    22:00 +14°C° 0 mm 3 m/S 765 mmHg 70%
    23:00 +14°C° 0 mm 3 m/S 765 mmHg 72%

    28 September, Freitag

    Zeit Temperatur Niederschläge Wind Luftdruck Luftfeuchtigkeit
    00:00 +13°C° 0 mm 3 m/S 765 mmHg 73%
    01:00 +13°C° 0 mm 3 m/S 764 mmHg 74%
    02:00 +12°C° 0 mm 3 m/S 764 mmHg 76%
    03:00 +12°C° 0 mm 3 m/S 764 mmHg 78%
    04:00 +12°C° 0 mm 2 m/S 764 mmHg 79%
    05:00 +12°C° 0 mm 2 m/S 764 mmHg 82%
    06:00 +12°C° 0 mm 2 m/S 764 mmHg 84%
    07:00 +12°C° 0 mm 2 m/S 764 mmHg 87%
    08:00 +13°C° 0 mm 2 m/S 764 mmHg 81%
    09:00 +15°C° 0 mm 2 m/S 764 mmHg 75%
    10:00 +17°C° 0 mm 3 m/S 765 mmHg 69%
    11:00 +17°C° 0 mm 3 m/S 765 mmHg 68%
    12:00 +17°C° 0 mm 3 m/S 765 mmHg 66%
    13:00 +17°C° 0 mm 3 m/S 765 mmHg 64%
    14:00 +17°C° 0 mm 3 m/S 764 mmHg 63%
    15:00 +16°C° 0 mm 3 m/S 764 mmHg 61%
    16:00 +16°C° 0 mm 3 m/S 764 mmHg 59%
    17:00 +14°C° 0 mm 3 m/S 765 mmHg 60%
    18:00 +14°C° 0 mm 2 m/S 765 mmHg 61%
    19:00 +14°C° 0 mm 2 m/S 765 mmHg 62%
    20:00 +13°C° 0 mm 2 m/S 766 mmHg 64%
    21:00 +12°C° 0 mm 2 m/S 766 mmHg 65%
    22:00 +10°C° 0 mm 2 m/S 766 mmHg 66%
    23:00 +9°C° 0 mm 2 m/S 767 mmHg 70%

    29 September, Samstag

    Zeit Temperatur Niederschläge Wind Luftdruck Luftfeuchtigkeit
    00:00 +8°C° 0 mm 2 m/S 767 mmHg 73%
    01:00 +8°C° 0 mm 2 m/S 767 mmHg 76%
    02:00 +7°C° 0 mm 2 m/S 767 mmHg 78%
    03:00 +7°C° 0 mm 2 m/S 767 mmHg 80%
    04:00 +6°C° 0 mm 2 m/S 767 mmHg 83%
    05:00 +6°C° 0 mm 2 m/S 768 mmHg 82%
    06:00 +7°C° 0 mm 1 m/S 768 mmHg 82%
    07:00 +7°C° 0 mm 1 m/S 768 mmHg 82%
    08:00 +9°C° 0 mm 1 m/S 768 mmHg 73%
    09:00 +11°C° 0 mm 1 m/S 769 mmHg 64%
    10:00 +13°C° 0 mm 1 m/S 769 mmHg 55%
    11:00 +14°C° 0 mm 1 m/S 769 mmHg 50%
    12:00 +16°C° 0 mm 1 m/S 769 mmHg 44%
    13:00 +18°C° 0 mm 1 m/S 768 mmHg 39%
    14:00 +16°C° 0 mm 1 m/S 768 mmHg 39%
    15:00 +16°C° 0 mm 1 m/S 768 mmHg 39%
    16:00 +16°C° 0 mm 1 m/S 768 mmHg 38%
    17:00 +14°C° 0 mm 1 m/S 768 mmHg 44%
    18:00 +13°C° 0 mm 1 m/S 768 mmHg 49%
    19:00 +11°C° 0 mm 1 m/S 768 mmHg 54%
    20:00 +10°C° 0 mm 1 m/S 768 mmHg 56%
    21:00 +10°C° 0 mm 1 m/S 768 mmHg 58%
    22:00 +9°C° 0 mm 1 m/S 768 mmHg 60%
    23:00 +9°C° 0 mm 1 m/S 768 mmHg 61%
    Mehr zeigen